Weather History for Holland, MI

Change the Weather History Date:

Sunday, December 9, 2012

  Actual Average Record
Temperature  
Mean Temperature 35 °F 33 °F  
Max Temperature 37 °F 38 °F 60 °F (1991)
Min Temperature 33 °F 28 °F 4 °F (1964)
Degree Days  
Heating Degree Days 30 32  
Month to date heating degree days 199 276  
Since 1 July heating degree days 1440 1499  
Cooling Degree Days 0 0  
Month to date cooling degree days 0 0  
Year to date cooling degree days 1067 693  
Moisture  
Dew Point 30 °F    
Average Humidity 86    
Maximum Humidity 96    
Minimum Humidity 75    
Precipitation  
Precipitation 0.24 in 0.09 in 0.71 in (1974)
Month to date precipitation 0.82 0.88  
Year to date precipitation 31.66 35.04  
Sea Level Pressure  
Sea Level Pressure 29.91 in    
Wind  
Wind Speed 9 mph (East)    
Max Wind Speed 18 mph    
Max Gust Speed 24 mph    
Visibility 6 miles    
Events Rain , Snow    
T = Trace of Precipitation, MM = Missing Value Source: NWS Daily Summary

Daily Weather History Graph

Daily Weather History Graph

Search for Another Location

Airport:

Trip Planner

Search our weather history database for the weather conditions in past years. The results will help you decide how hot, cold, wet, or windy it might be!

Date:

Astronomy

Dec. 09, 2012 Rise Set
Actual Time 8:03 AM EST 5:10 PM EST
Civil Twilight 7:31 AM EST 5:42 PM EST
Nautical Twilight 6:55 AM EST 6:18 PM EST
Astronomical Twilight 6:21 AM EST 6:52 PM EST
Moon 3:31 AM EST (12/9) 2:20 PM EST (12/9)
Length of Visible Light 10h 11m
Length of Day
9h 06m
Waning Crescent, 19% of the Moon is Illuminated
Dec 9
Waning Crescent
Dec 13
New
Dec 20
First Quarter
Dec 28
Full
Jan 4
Last Quarter

Hourly Weather History & Observations

Time (EST) Temp. Windchill Dew Point Humidity Pressure Visibility Wind Dir Wind Speed Gust Speed Precip Events Conditions
12:53 AM 34.0 °F 28.0 °F 27.0 °F 75% 30.17 in 10.0 mi ENE 6.9 mph - N/A   Scattered Clouds
1:53 AM 34.0 °F 27.2 °F 26.1 °F 73% 30.17 in 10.0 mi East 8.1 mph - N/A   Mostly Cloudy
2:53 AM 34.0 °F 27.2 °F 26.1 °F 73% 30.16 in 10.0 mi East 8.1 mph - N/A   Mostly Cloudy
3:53 AM 33.1 °F 26.9 °F 27.0 °F 78% 30.17 in 10.0 mi East 6.9 mph - N/A   Mostly Cloudy
4:53 AM 33.1 °F 26.1 °F 27.0 °F 78% 30.14 in 10.0 mi East 8.1 mph - N/A   Mostly Cloudy
5:53 AM 34.0 °F 26.6 °F 27.0 °F 75% 30.14 in 10.0 mi East 9.2 mph - N/A   Overcast
6:53 AM 34.0 °F 25.0 °F 28.0 °F 79% 30.11 in 7.0 mi East 12.7 mph - 0.00 in Snow Light Snow
7:53 AM 34.0 °F 25.5 °F 28.0 °F 79% 30.08 in 10.0 mi East 11.5 mph - 0.00 in   Overcast
8:53 AM 35.1 °F 27.4 °F 28.9 °F 78% 30.07 in 10.0 mi East 10.4 mph - N/A   Overcast
9:53 AM 35.1 °F 26.9 °F 28.9 °F 78% 30.04 in 10.0 mi East 11.5 mph - N/A   Overcast
10:53 AM 36.0 °F 27.5 °F 30.0 °F 79% 30.02 in 10.0 mi East 12.7 mph - N/A   Overcast
11:53 AM 37.0 °F 28.9 °F 30.0 °F 76% 29.98 in 5.0 mi East 12.7 mph - 0.00 in Snow Light Snow
12:53 PM 36.0 °F 28.0 °F 30.0 °F 79% 29.93 in 4.0 mi ENE 11.5 mph - 0.01 in Snow Light Snow
1:15 PM 35.6 °F 27.1 °F 30.2 °F 81% 29.89 in 8.0 mi ENE 12.7 mph 18.4 mph 0.01 in Rain Light Rain
1:53 PM 35.1 °F 25.5 °F 30.0 °F 82% 29.87 in 5.0 mi East 15.0 mph 23.0 mph 0.06 in Rain Light Rain
2:53 PM 35.1 °F 25.9 °F 30.9 °F 85% 29.85 in 3.0 mi East 13.8 mph - 0.09 in Rain Light Rain
3:08 PM 35.6 °F 26.6 °F 30.2 °F 81% 29.82 in 2.5 mi East 13.8 mph - 0.02 in Rain Light Rain
3:53 PM 35.1 °F 26.4 °F 30.9 °F 85% 29.82 in 4.0 mi East 12.7 mph - 0.06 in   Overcast
4:18 PM 35.6 °F 27.1 °F 30.2 °F 81% 29.81 in 2.0 mi East 12.7 mph 18.4 mph N/A   Overcast
4:25 PM 35.6 °F 27.1 °F 30.2 °F 81% 29.81 in 1.8 mi East 12.7 mph - 0.01 in   Overcast
4:33 PM 35.6 °F 29.2 °F 30.2 °F 81% 29.80 in 2.0 mi East 8.1 mph 18.4 mph 0.01 in   Overcast
4:53 PM 35.1 °F 26.9 °F 30.9 °F 85% 29.82 in 2.5 mi East 11.5 mph - 0.01 in   Overcast
5:20 PM 35.6 °F 27.1 °F 30.2 °F 81% 29.79 in 3.0 mi East 12.7 mph - N/A   Overcast
5:53 PM 35.1 °F 26.9 °F 30.9 °F 85% 29.80 in 3.0 mi East 11.5 mph - 0.00 in   Overcast
6:53 PM 35.1 °F 31.0 °F 32.0 °F 89% 29.78 in 5.0 mi East 4.6 mph - 0.01 in   Overcast
7:53 PM 35.1 °F 27.9 °F 32.0 °F 89% 29.75 in 8.0 mi East 9.2 mph - N/A   Overcast
8:53 PM 35.1 °F 29.3 °F 32.0 °F 89% 29.74 in 6.0 mi ENE 6.9 mph - N/A   Overcast
9:53 PM 35.1 °F 31.0 °F 32.0 °F 89% 29.71 in 3.0 mi ENE 4.6 mph - N/A   Overcast
10:15 PM 33.8 °F 30.8 °F 32.0 °F 93% 29.69 in 2.5 mi ENE 3.5 mph - N/A   Overcast
10:53 PM 34.0 °F 28.8 °F 32.0 °F 92% 29.70 in 2.0 mi ENE 5.8 mph - N/A   Overcast
11:40 PM 33.8 °F 27.7 °F 32.0 °F 93% 29.67 in 1.8 mi East 6.9 mph - N/A   Overcast
11:53 PM 34.0 °F 28.8 °F 32.0 °F 92% 29.69 in 1.5 mi East 5.8 mph - N/A   Overcast